OE6PLD-13 Weather Reports


time (UTC)temp
C
wind
direction
speed
KPH
gust
KPH
rain 1hr
cm
rain 24hr
cm
rain mn
cm
humidity
%
barometer
mb
20260906010401 12 266 0.0 0.0 0.08 0.08 0.00 98 1016.7
20260906010058 12 266 0.0 0.0 0.08 0.08 0.00 98 1016.6
20260906005754 13 266 0.0 0.0 0.08 0.08 0.00 98 1016.8
20260906005451 13 266 0.0 0.0 0.08 0.08 0.00 98 1016.7
20260906005148 13 266 0.0 0.0 0.08 0.08 0.00 98 1016.8
20260906004844 13 266 0.0 0.0 0.08 0.08 0.00 98 1016.7
20260906004541 13 266 0.0 0.0 0.08 0.08 0.00 98 1016.6
20260906004238 13 266 0.0 0.0 0.08 0.08 0.00 98 1016.8
20260906003934 13 266 0.0 0.0 0.08 0.08 0.00 98 1016.7
20260906003631 13 266 0.0 0.0 0.08 0.08 0.00 98 1016.8
20260906003328 13 266 0.0 0.0 0.08 0.08 0.00 98 1016.8
20260906003024 13 266 0.0 0.0 0.08 0.08 0.00 98 1016.6
20260906002721 13 266 0.0 0.0 0.08 0.08 0.00 99 1017.0
20260906002418 13 266 0.0 0.0 0.08 0.08 0.00 99 1016.9
20260906002114 13 266 0.0 0.0 0.08 0.08 0.00 99 1016.5
20260906001811 13 266 0.0 0.0 0.08 0.08 0.00 99 1016.5
20260906001507 13 266 0.0 0.0 0.08 0.08 0.00 99 1016.6
20260906001204 13 266 0.0 0.0 0.08 0.08 0.00 99 1016.8
20260906000901 13 266 0.0 0.0 0.08 0.08 0.00 99 1016.5
20260906000558 13 266 0.0 0.0 0.08 0.08 0.00 99 1016.7
20260906000256 13 266 0.0 0.0 0.08 0.08 0.00 99 1016.7
20260905235951 13 266 0.0 0.0 0.08 0.08 0.00 99 1016.5
20260905235647 13 266 0.0 0.0 0.08 0.08 0.00 99 1016.5
20260905235344 13 266 0.0 0.0 0.08 0.08 0.00 99 1016.5
20260905235041 13 266 0.0 0.0 0.08 0.08 0.00 99 1016.3
20260905234737 13 266 0.0 0.0 0.08 0.08 0.00 99 1016.2
20260905234434 13 266 0.0 0.0 0.08 0.08 0.00 99 1016.4
20260905234131 13 266 0.0 0.0 0.08 0.08 0.00 99 1016.4
20260905233827 13 266 0.0 0.0 0.08 0.08 0.00 99 1016.2
20260905233524 13 266 0.0 0.0 0.08 0.08 0.00 99 1016.4
20260905233221 13 266 0.0 0.0 0.08 0.08 0.00 98 1016.1
20260905232917 13 266 0.0 0.0 0.08 0.08 0.00 99 1016.1
20260905232614 13 266 0.0 1.6 0.08 0.08 0.00 98 1016.2
20260905232311 12 266 0.0 4.8 0.08 0.08 0.00 98 1016.1
20260905232007 13 266 0.0 0.0 0.08 0.08 0.00 98 1015.9
20260905231704 13 266 0.0 4.8 0.08 0.08 0.00 98 1015.9
20260905231401 13 266 0.0 0.0 0.08 0.08 0.00 98 1016.0
20260905231057 13 266 0.0 0.0 0.08 0.08 0.00 98 1016.0
20260905230754 13 266 0.0 0.0 0.08 0.08 0.00 98 1016.1
20260905230451 13 266 0.0 0.0 0.08 0.08 0.00 98 1016.2
20260905230147 13 266 0.0 0.0 0.08 0.08 0.00 99 1016.2
20260905225844 13 266 0.0 0.0 0.08 0.08 0.00 98 1016.1
20260905225541 13 266 0.0 0.0 0.08 0.08 0.00 98 1016.2
20260905225237 13 266 0.0 3.2 0.08 0.08 0.00 98 1016.1
20260905224934 13 266 0.0 1.6 0.08 0.08 0.00 98 1016.0
20260905224631 13 266 0.0 0.0 0.08 0.08 0.00 98 1016.2
20260905224327 13 266 0.0 0.0 0.08 0.08 0.00 98 1016.2
20260905224024 13 266 0.0 0.0 0.08 0.08 0.00 98 1016.2
20260905223721 13 266 0.0 0.0 0.08 0.08 0.00 98 1016.1
20260905223417 13 266 0.0 0.0 0.08 0.08 0.00 98 1016.0
20260905223114 13 266 0.0 0.0 0.08 0.08 0.00 98 1016.1
20260905222811 13 266 0.0 0.0 0.08 0.08 0.00 98 1016.0
20260905222507 13 266 0.0 0.0 0.08 0.08 0.00 98 1016.0
20260905222204 13 266 0.0 0.0 0.08 0.08 0.00 98 1016.0
20260905221901 13 266 0.0 0.0 0.08 0.08 0.00 98 1016.1
20260905221557 13 266 0.0 0.0 0.08 0.08 0.00 98 1016.0
20260905221254 13 266 0.0 0.0 0.08 0.08 0.00 98 1015.9
20260905220951 13 266 0.0 0.0 0.08 0.08 0.00 98 1016.1
20260905220647 13 266 0.0 0.0 0.08 0.08 0.00 98 1016.2
20260905220344 13 266 0.0 0.0 0.08 0.08 0.00 98 1016.1
20260905220041 13 266 0.0 0.0 0.08 0.08 0.00 97 1016.3
20260905215737 13 266 0.0 0.0 0.08 0.08 0.00 97 1016.1
20260905215434 13 266 0.0 0.0 0.08 0.08 0.00 97 1016.2
20260905215131 13 266 0.0 0.0 0.08 0.08 0.00 97 1016.3
20260905214827 14 266 0.0 0.0 0.08 0.08 0.00 97 1016.0
20260905214524 14 266 0.0 0.0 0.08 0.08 0.00 97 1016.0
20260905214220 14 266 0.0 0.0 0.08 0.08 0.00 97 1016.1
20260905213917 14 266 0.0 0.0 0.08 0.08 0.00 97 1016.0
20260905213614 14 266 0.0 0.0 0.08 0.08 0.00 97 1015.9
20260905213310 14 266 0.0 0.0 0.08 0.08 0.00 97 1016.0
20260905213007 14 266 0.0 0.0 0.08 0.08 0.00 97 1015.9
20260905212703 14 266 0.0 0.0 0.08 0.08 0.00 97 1016.1
20260905212400 14 266 0.0 0.0 0.08 0.08 0.00 97 1015.9
20260905212057 15 266 0.0 0.0 0.08 0.08 0.00 97 1015.7
20260905211753 15 266 0.0 0.0 0.08 0.08 0.00 97 1015.9
20260905211450 15 266 0.0 0.0 0.08 0.08 0.00 97 1015.8
20260905211147 15 266 0.0 0.0 0.08 0.08 0.00 97 1015.7
20260905210843 15 266 0.0 0.0 0.08 0.08 0.00 96 1015.9
20260905210540 15 266 0.0 0.0 0.08 0.08 0.00 96 1015.7
20260905210237 15 266 0.0 0.0 0.08 0.08 0.00 96 1015.6
20260905205933 15 266 0.0 0.0 0.08 0.08 0.00 96 1015.8
20260905205630 15 266 0.0 0.0 0.08 0.08 0.00 96 1015.7
20260905205327 15 266 0.0 0.0 0.08 0.08 0.00 96 1015.6
20260905205023 15 266 0.0 0.0 0.08 0.08 0.00 96 1015.6
20260905204720 15 266 0.0 0.0 0.08 0.08 0.00 96 1015.4
20260905204417 15 266 0.0 0.0 0.08 0.08 0.00 96 1015.6
20260905204113 15 266 0.0 0.0 0.08 0.08 0.00 96 1015.6
20260905203810 15 266 0.0 0.0 0.08 0.08 0.00 96 1015.5
20260905203506 15 266 0.0 0.0 0.08 0.08 0.00 96 1015.3
20260905203203 15 266 0.0 0.0 0.08 0.08 0.00 96 1015.7
20260905202900 15 266 0.0 0.0 0.08 0.08 0.00 95 1015.5
20260905202556 15 266 0.0 0.0 0.08 0.08 0.00 95 1015.3
20260905202253 15 266 0.0 0.0 0.08 0.08 0.00 95 1015.3
20260905201950 15 266 0.0 0.0 0.08 0.08 0.00 95 1015.4
20260905201646 16 266 0.0 0.0 0.08 0.08 0.00 95 1015.3
20260905201343 16 266 0.0 0.0 0.08 0.08 0.00 95 1015.2
20260905201040 16 266 0.0 0.0 0.08 0.08 0.00 94 1015.3
20260905200737 16 266 0.0 0.0 0.08 0.08 0.00 94 1015.2
20260905200433 16 266 0.0 0.0 0.08 0.08 0.00 94 1015.3
20260905200130 16 266 0.0 0.0 0.08 0.08 0.00 94 1015.3
20260905195827 16 266 0.0 0.0 0.08 0.08 0.00 94 1015.3
20260905195523 16 266 0.0 0.0 0.08 0.08 0.00 94 1015.3
20260905195219 16 266 0.0 0.0 0.08 0.08 0.00 94 1015.1
20260905194916 16 266 0.0 0.0 0.08 0.08 0.00 93 1015.0
20260905194613 16 266 0.0 0.0 0.08 0.08 0.00 93 1014.9
20260905194309 16 266 0.0 0.0 0.08 0.08 0.00 93 1014.9
20260905194006 16 266 0.0 0.0 0.08 0.08 0.00 93 1015.2
20260905193703 16 266 0.0 0.0 0.08 0.08 0.00 93 1014.7
20260905193359 16 266 0.0 0.0 0.08 0.08 0.00 93 1015.0
20260905193056 16 266 0.0 0.0 0.08 0.08 0.00 93 1014.8
20260905192753 17 266 0.0 0.0 0.08 0.08 0.00 92 1014.8
20260905192449 17 266 0.0 0.0 0.08 0.08 0.00 92 1014.8
20260905192146 17 266 0.0 0.0 0.08 0.08 0.00 92 1014.8
20260905191843 17 266 0.0 0.0 0.08 0.08 0.00 92 1014.7
20260905191539 17 266 0.0 0.0 0.08 0.08 0.00 92 1014.7
20260905191236 17 261 0.0 0.0 0.08 0.08 0.00 91 1014.6
20260905190933 17 256 0.0 0.0 0.08 0.08 0.00 90 1014.6
20260905190629 17 252 0.0 0.0 0.08 0.08 0.00 90 1014.8
20260905190326 17 249 0.0 0.0 0.08 0.08 0.00 90 1014.6
20260905190023 17 246 0.0 0.0 0.08 0.08 0.00 90 1014.7
20260905185719 17 242 0.0 0.0 0.08 0.08 0.00 90 1014.6
20260905185416 17 238 0.0 0.0 0.08 0.08 0.00 89 1014.4
20260905185113 18 230 0.0 0.0 0.08 0.08 0.00 89 1014.2
20260905184809 18 220 0.0 0.0 0.08 0.08 0.00 89 1014.4
20260905184506 18 209 0.0 0.0 0.08 0.08 0.00 89 1014.2
20260905184202 18 192 0.0 0.0 0.08 0.08 0.00 89 1014.1
20260905183859 18 180 0.0 0.0 0.08 0.08 0.00 88 1014.1
20260905183556 18 164 0.0 0.0 0.08 0.08 0.00 87 1014.1
20260905183253 18 159 0.0 0.0 0.08 0.08 0.00 88 1013.8
20260905182949 18 155 0.0 0.0 0.08 0.08 0.00 87 1014.0
20260905182646 18 149 0.0 0.0 0.08 0.08 0.00 87 1014.0
20260905182343 18 144 0.0 1.6 0.08 0.08 0.00 86 1013.8
20260905182039 18 139 0.0 1.6 0.08 0.08 0.00 86 1014.0
20260905181736 18 138 0.0 3.2 0.08 0.08 0.00 86 1014.1
20260905181433 19 137 0.0 3.2 0.08 0.08 0.00 85 1013.8
20260905181129 19 134 1.6 3.2 0.08 0.08 0.00 85 1013.9
20260905180826 19 132 0.0 3.2 0.08 0.08 0.00 84 1013.7
20260905180523 19 125 0.0 0.0 0.08 0.08 0.00 85 1013.6
20260905180219 20 130 0.0 0.0 0.08 0.08 0.00 85 1013.8
20260905175916 20 128 0.0 0.0 0.08 0.08 0.00 84 1013.7
20260905175613 20 127 0.0 0.0 0.08 0.08 0.00 83 1013.7
20260905175309 20 127 0.0 0.0 0.08 0.08 0.00 83 1013.6
20260905175006 20 125 0.0 0.0 0.08 0.08 0.00 81 1013.6
20260905174702 20 125 0.0 0.0 0.08 0.08 0.00 81 1013.4
20260905174359 20 126 0.0 0.0 0.08 0.08 0.00 81 1013.4
20260905174056 20 126 0.0 0.0 0.08 0.08 0.00 81 1013.3
20260905173752 20 126 0.0 0.0 0.08 0.08 0.00 81 1013.4
20260905173449 21 130 0.0 0.0 0.08 0.08 0.00 80 1013.3
20260905173146 21 137 0.0 0.0 0.08 0.08 0.00 80 1013.2
20260905172842 21 149 0.0 0.0 0.08 0.08 0.00 80 1013.2
20260905172539 21 159 0.0 0.0 0.08 0.08 0.00 79 1013.4
20260905172236 21 172 0.0 0.0 0.08 0.08 0.00 78 1013.1
20260905171932 21 192 0.0 0.0 0.08 0.08 0.00 78 1013.1
20260905171629 21 214 0.0 0.0 0.08 0.08 0.00 78 1013.0
20260905171326 21 226 0.0 0.0 0.08 0.08 0.00 77 1013.1
20260905171022 22 243 0.0 0.0 0.08 0.08 0.00 76 1012.9
20260905170719 22 250 0.0 0.0 0.08 0.08 0.00 76 1013.3
20260905170415 22 250 0.0 1.6 0.08 0.08 0.00 75 1012.9
20260905170112 22 249 0.0 3.2 0.08 0.08 0.00 74 1012.9
20260905165809 22 248 1.6 3.2 0.08 0.08 0.00 73 1012.9
20260905165505 22 249 0.0 0.0 0.08 0.08 0.00 72 1012.8
20260905165202 22 250 0.0 0.0 0.08 0.08 0.00 72 1012.8
20260905164859 23 250 0.0 0.0 0.08 0.08 0.00 71 1012.8
20260905164555 23 249 1.6 3.2 0.08 0.08 0.00 70 1012.7
20260905164252 23 253 0.0 4.8 0.08 0.08 0.00 70 1012.7
20260905163949 25 255 0.0 4.8 0.08 0.08 0.00 68 1012.6
20260905163645 25 256 0.0 4.8 0.08 0.08 0.00 66 1012.7
20260905163342 25 256 0.0 4.8 0.08 0.08 0.00 65 1012.4
20260905163039 25 254 1.6 4.8 0.08 0.08 0.00 65 1012.6
20260905162735 24 254 0.0 1.6 0.08 0.08 0.00 65 1012.4
20260905162432 23 254 0.0 4.8 0.08 0.08 0.00 67 1012.3
20260905162129 23 255 0.0 4.8 0.08 0.08 0.00 68 1012.4
20260905161825 22 256 3.2 6.4 0.08 0.08 0.00 69 1012.4
20260905161522 23 256 0.0 4.8 0.08 0.08 0.00 69 1012.5
20260905161218 23 255 3.2 4.8 0.08 0.08 0.00 68 1012.4
20260905160915 25 254 0.0 4.8 0.08 0.08 0.00 66 1012.6
20260905160612 25 252 3.2 6.4 0.08 0.08 0.00 62 1012.5
20260905160308 25 250 0.0 6.4 0.08 0.08 0.00 62 1012.5
20260905160005 25 250 1.6 3.2 0.08 0.08 0.00 63 1012.5
20260905155702 24 248 0.0 12.9 0.08 0.08 0.00 66 1012.6
20260905155358 24 246 6.4 12.9 0.08 0.08 0.00 65 1012.5
20260905155055 24 247 4.8 6.4 0.08 0.08 0.00 67 1012.4
20260905154752 24 246 0.0 6.4 0.08 0.08 0.00 65 1012.4
20260905154448 24 245 3.2 8.0 0.08 0.08 0.00 66 1012.3
20260905154145 25 245 4.8 8.0 0.08 0.08 0.00 63 1012.4
20260905153842 25 246 1.6 8.0 0.08 0.08 0.00 64 1012.4
20260905153538 24 246 4.8 12.9 0.08 0.08 0.00 65 1012.2
20260905153235 24 245 4.8 8.0 0.08 0.08 0.00 67 1012.5
20260905152932 24 245 0.0 4.8 0.08 0.08 0.00 65 1012.3
20260905152628 25 242 0.0 6.4 0.08 0.00 0.00 64 1012.5
20260905152325 24 241 0.0 4.8 0.08 0.00 0.00 64 1012.4
20260905152022 23 239 3.2 6.4 0.08 0.00 0.00 67 1012.4
20260905151718 23 237 3.2 9.7 0.08 0.00 0.00 67 1012.7
20260905151415 23 234 8.0 9.7 0.08 0.00 0.00 67 1012.5
20260905151112 23 232 8.0 12.9 0.08 0.00 0.00 67 1012.4
20260905150808 23 229 4.8 9.7 0.08 0.00 0.00 68 1012.4
20260905150505 23 227 6.4 8.0 0.08 0.00 0.00 68 1012.5
20260905150202 23 226 4.8 9.7 0.08 0.00 0.00 67 1012.7
20260905145858 23 226 6.4 8.0 0.08 0.00 0.00 68 1012.4
20260905145555 23 226 1.6 6.4 0.08 0.00 0.00 70 1012.6
20260905145252 23 226 3.2 8.0 0.08 0.00 0.00 70 1012.7
20260905144948 23 225 4.8 9.7 0.08 0.00 0.00 70 1012.6
20260905144645 23 225 4.8 8.0 0.08 0.00 0.00 70 1012.5
20260905144342 22 225 0.0 9.7 0.08 0.00 0.00 71 1012.5
20260905144038 22 226 4.8 9.7 0.08 0.00 0.00 72 1012.5
20260905143735 22 226 4.8 8.0 0.08 0.00 0.00 72 1012.7
20260905143432 22 225 4.8 9.7 0.08 0.00 0.00 70 1012.5
20260905143128 23 223 8.0 9.7 0.08 0.00 0.00 70 1012.6
20260905142825 23 220 0.0 4.8 0.08 0.00 0.00 71 1012.6
20260905142521 23 218 1.6 8.0 0.08 0.00 0.00 70 1012.6
20260905142218 22 216 4.8 9.7 0.08 0.00 0.00 72 1012.6
20260905141915 22 212 3.2 9.7 0.08 0.00 0.00 71 1012.8
20260905141612 23 207 4.8 6.4 0.08 0.00 0.00 70 1012.9
20260905141308 23 205 4.8 9.7 0.08 0.00 0.00 69 1012.7
20260905141005 22 203 0.0 9.7 0.08 0.00 0.00 72 1012.9
20260905140701 22 202 4.8 12.9 0.08 0.00 0.00 71 1012.9
20260905140358 22 190 4.8 8.0 0.08 0.00 0.00 71 1012.9
20260905140053 22 180 1.6 4.8 0.08 0.00 0.00 71 1012.9
20260905135750 23 178 0.0 8.0 0.08 0.00 0.00 71 1012.9
20260905135446 22 182 3.2 9.7 0.08 0.00 0.00 72 1012.8
20260905135143 22 181 1.6 9.7 0.08 0.00 0.00 71 1012.9
20260905134840 22 180 4.8 6.4 0.08 0.00 0.00 72 1012.8
20260905134536 21 183 3.2 8.0 0.08 0.00 0.00 73 1012.8
20260905134233 21 181 4.8 12.9 0.08 0.00 0.00 73 1012.7
20260905133930 22 170 9.7 12.9 0.08 0.00 0.00 72 1012.8
20260905133626 22 152 3.2 8.0 0.08 0.00 0.00 70 1012.7
20260905133323 22 147 1.6 8.0 0.08 0.00 0.00 68 1012.8
20260905133019 22 148 3.2 8.0 0.08 0.00 0.00 70 1012.9
20260905132716 22 152 6.4 8.0 0.08 0.00 0.00 71 1013.0
20260905132413 22 146 6.4 8.0 0.08 0.00 0.00 69 1012.7
20260905132109 22 135 1.6 8.0 0.08 0.00 0.00 70 1013.0
20260905131806 22 134 0.0 8.0 0.08 0.00 0.00 70 1012.7
20260905131502 22 123 4.8 6.4 0.08 0.00 0.00 69 1013.0
20260905131159 22 118 0.0 0.0 0.08 0.00 0.00 69 1013.0
20260905130856 22 120 0.0 3.2 0.08 0.00 0.00 67 1013.0
20260905130552 22 122 1.6 3.2 0.08 0.00 0.00 69 1013.0
20260905130249 21 126 0.0 0.0 0.08 0.00 0.00 70 1012.7
20260905125946 21 132 0.0 0.0 0.08 0.00 0.00 70 1013.0
20260905125642 21 141 0.0 0.0 0.08 0.00 0.00 70 1013.2
20260905125339 21 153 0.0 4.8 0.08 0.00 0.00 71 1013.0
20260905125036 21 162 3.2 4.8 0.08 0.00 0.00 72 1013.1
20260905124732 21 165 0.0 0.0 0.08 0.00 0.00 73 1013.3
20260905124429 21 177 0.0 8.0 0.08 0.00 0.00 74 1013.1
20260905124126 21 185 1.6 8.0 0.08 0.00 0.00 74 1012.9
20260905123822 21 185 3.2 8.0 0.08 0.00 0.00 73 1013.1
20260905123519 21 190 0.0 8.0 0.08 0.00 0.00 73 1013.1
20260905123215 21 194 0.0 9.7 0.08 0.00 0.00 73 1013.2
20260905122912 21 194 4.8 14.5 0.08 0.00 0.00 72 1013.3
20260905122608 21 187 3.2 9.7 0.08 0.00 0.00 70 1013.4
20260905122307 21 189 0.0 12.9 0.08 0.00 0.00 69 1013.2
20260905122002 21 192 3.2 12.9 0.08 0.00 0.00 68 1013.1
20260905121658 21 187 3.2 8.0 0.08 0.00 0.00 67 1013.0
20260905121355 22 184 0.0 0.0 0.08 0.00 0.00 67 1013.1
20260905121052 22 190 0.0 0.0 0.08 0.00 0.00 67 1013.0
20260905120748 22 199 0.0 8.0 0.08 0.00 0.00 67 1012.8
20260905120445 22 213 0.0 8.0 0.08 0.00 0.00 66 1013.0
20260905120141 22 221 0.0 4.8 0.08 0.00 0.00 67 1013.1
20260905115838 22 231 0.0 4.8 0.08 0.00 0.00 69 1015.2
20260905115535 22 240 0.0 4.8 0.08 0.00 0.00 67 1015.3
20260905115231 22 239 0.0 6.4 0.08 0.00 0.00 68 1015.3
20260905114928 22 246 0.0 0.0 0.08 0.00 0.00 67 1015.3
20260905114625 22 249 0.0 3.2 0.08 0.00 0.00 66 1015.2
20260905114321 22 250 0.0 0.0 0.08 0.00 0.00 64 1015.1
20260905114018 22 247 0.0 0.0 0.08 0.00 0.00 64 1015.1
20260905113714 22 246 0.0 4.8 0.08 0.00 0.00 62 1015.3
20260905113411 22 245 1.6 4.8 0.08 0.00 0.00 62 1015.5
20260905113108 22 246 0.0 0.0 0.08 0.00 0.00 61 1015.3
20260905112804 22 245 0.0 6.4 0.08 0.00 0.00 61 1015.3
20260905112501 22 245 3.2 6.4 0.08 0.00 0.00 60 1015.2
20260905112158 22 246 0.0 8.0 0.08 0.00 0.00 61 1015.3
20260905111854 23 246 1.6 4.8 0.08 0.00 0.00 60 1015.3
20260905111551 23 247 0.0 0.0 0.08 0.00 0.00 60 1014.9
20260905111248 23 245 0.0 0.0 0.08 0.00 0.00 60 1015.0
20260905110944 23 244 0.0 6.4 0.08 0.00 0.00 62 1015.1
20260905110641 23 245 4.8 6.4 0.08 0.00 0.00 60 1015.0
20260905110338 23 248 1.6 4.8 0.08 0.00 0.00 60 1015.0
20260905110034 23 252 0.0 4.8 0.08 0.00 0.00 61 1014.8
20260905105731 23 254 0.0 3.2 0.08 0.00 0.00 60 1015.1
20260905105428 22 254 0.0 3.2 0.08 0.00 0.00 61 1015.0
20260905105124 22 255 0.0 6.4 0.08 0.00 0.00 61 1015.1
20260905104821 22 254 0.0 8.0 0.08 0.00 0.00 62 1015.2
20260905104518 22 256 0.0 4.8 0.08 0.00 0.00 61 1015.0
20260905104214 22 256 0.0 4.8 0.08 0.00 0.00 61 1015.0
20260905103911 22 257 3.2 6.4 0.08 0.00 0.00 61 1014.9
20260905103608 23 260 0.0 1.6 0.08 0.00 0.00 60 1015.0
20260905103304 23 259 0.0 0.0 0.08 0.00 0.00 61 1015.0
20260905103000 23 260 0.0 3.2 0.08 0.00 0.00 60 1014.8
20260905102657 23 260 0.0 3.2 0.08 0.00 0.00 61 1014.6
20260905102353 22 263 0.0 3.2 0.08 0.00 0.00 61 1015.1
20260905102050 22 264 0.0 0.0 0.08 0.00 0.00 61 1014.9
20260905101747 22 264 0.0 0.0 0.08 0.00 0.00 60 1014.9
20260905101443 22 264 0.0 0.0 0.08 0.00 0.00 62 1015.1
20260905101140 22 264 0.0 3.2 0.08 0.00 0.00 63 1015.0
20260905100837 22 263 1.6 4.8 0.08 0.00 0.00 62 1015.0
20260905100533 22 264 3.2 4.8 0.08 0.00 0.00 61 1014.9
20260905100230 22 264 0.0 1.6 0.08 0.00 0.00 63 1015.0
20260905095926 22 263 0.0 1.6 0.08 0.00 0.00 62 1015.0
20260905095623 22 263 0.0 4.8 0.08 0.00 0.00 63 1015.0
20260905095320 22 262 3.2 4.8 0.08 0.00 0.00 62 1015.1
20260905095016 22 263 1.6 4.8 0.08 0.00 0.00 63 1015.1
20260905094713 22 263 0.0 4.8 0.08 0.00 0.00 62 1015.0
20260905094410 22 264 0.0 3.2 0.08 0.00 0.00 61 1014.7
20260905094106 22 264 0.0 0.0 0.08 0.00 0.00 62 1014.9
20260905093803 22 265 0.0 8.0 0.08 0.00 0.00 62 1014.8
20260905093500 22 266 1.6 8.0 0.08 0.00 0.00 62 1014.7
20260905093156 22 266 0.0 6.4 0.08 0.00 0.00 64 1014.7
20260905092852 22 266 1.6 9.7 0.08 0.00 0.00 62 1014.5
20260905092549 23 266 0.0 9.7 0.08 0.00 0.00 61 1014.7
20260905092245 22 266 3.2 6.4 0.08 0.00 0.00 61 1014.4
20260905091942 22 266 3.2 6.4 0.08 0.00 0.00 62 1014.6
20260905091639 22 266 3.2 6.4 0.08 0.00 0.00 62 1014.7
20260905091335 22 266 0.0 6.4 0.08 0.00 0.00 64 1014.6
20260905091032 22 266 3.2 12.9 0.08 0.00 0.00 65 1014.6
20260905090729 22 266 1.6 6.4 0.08 0.00 0.00 65 1014.7
20260905090425 21 266 0.0 6.4 0.08 0.00 0.00 68 1014.6
20260905090122 21 266 3.2 6.4 0.08 0.00 0.00 68 1014.6
20260905085819 21 266 3.2 12.9 0.08 0.00 0.00 69 1014.5
20260905085515 20 266 4.8 12.9 0.08 0.00 0.00 69 1014.4
20260905085212 20 266 0.0 9.7 0.08 0.00 0.00 71 1014.5
20260905084909 20 266 4.8 9.7 0.08 0.00 0.00 71 1014.7
20260905084605 20 266 0.0 6.4 0.08 0.00 0.00 71 1014.4
20260905084302 20 266 0.0 6.4 0.08 0.00 0.00 71 1014.6
20260905083959 20 266 1.6 6.4 0.08 0.00 0.00 71 1014.7
20260905083655 20 266 0.0 6.4 0.08 0.00 0.00 70 1014.7
20260905083352 20 266 4.8 6.4 0.08 0.00 0.00 68 1014.5
20260905083049 20 265 1.6 12.9 0.08 0.00 0.00 67 1014.5
20260905082745 21 265 1.6 8.0 0.08 0.00 0.00 67 1014.4
20260905082442 21 266 3.2 8.0 0.08 0.00 0.00 66 1014.5
20260905082139 21 263 3.2 6.4 0.08 0.00 0.00 66 1014.5
20260905081835 21 261 3.2 12.9 0.08 0.00 0.00 63 1014.5
20260905081532 21 260 6.4 12.9 0.08 0.00 0.00 62 1014.2
20260905081229 21 261 6.4 17.7 0.08 0.00 0.00 62 1014.5
20260905080925 21 261 8.0 9.7 0.08 0.00 0.00 62 1014.2
20260905080622 21 263 0.0 8.0 0.08 0.00 0.00 63 1014.3
20260905080319 21 263 0.0 8.0 0.08 0.00 0.00 63 1014.2
20260905080015 21 264 4.8 8.0 0.08 0.00 0.00 62 1014.0
20260905075712 21 265 0.0 8.0 0.08 0.00 0.00 62 1013.7
20260905075409 21 266 6.4 8.0 0.08 0.00 0.00 61 1013.8
20260905075105 21 266 0.0 9.7 0.08 0.00 0.00 62 1013.7
20260905074802 21 266 4.8 12.9 0.08 0.00 0.00 62 1013.5
20260905074459 22 266 6.4 12.9 0.08 0.00 0.00 62 1013.8
20260905074155 22 266 4.8 8.0 0.08 0.00 0.00 62 1013.5
20260905073852 22 266 0.0 8.0 0.08 0.00 0.00 62 1013.5
20260905073549 22 266 3.2 8.0 0.08 0.00 0.00 63 1013.7
20260905073245 22 266 1.6 19.3 0.08 0.00 0.00 62 1013.7
20260905072942 22 266 3.2 19.3 0.08 0.00 0.00 62 1013.4
20260905072639 22 266 3.2 14.5 0.08 0.00 0.00 62 1013.5
20260905072334 22 266 0.0 29.0 0.08 0.00 0.00 63 1013.4
20260905072031 23 266 6.4 16.1 0.08 0.00 0.00 62 1013.2
20260905071728 23 266 3.2 16.1 0.08 0.00 0.00 63 1013.2
20260905071424 23 266 4.8 16.1 0.08 0.00 0.00 64 1013.3
20260905071121 22 266 3.2 17.7 0.08 0.00 0.00 65 1013.1
20260905070818 22 266 8.0 17.7 0.08 0.00 0.00 66 1012.7
20260905070514 22 266 4.8 14.5 0.08 0.00 0.00 72 1012.9
20260905070211 22 266 1.6 8.0 0.08 0.00 0.00 76 1012.7
20260905065908 21 266 0.0 9.7 0.08 0.00 0.00 77 1012.8
20260905065604 21 266 1.6 6.4 0.08 0.00 0.00 78 1012.7
20260905065301 21 266 3.2 6.4 0.08 0.00 0.00 80 1012.7
20260905064958 20 266 3.2 4.8 0.08 0.00 0.00 81 1012.6
20260905064654 20 266 3.2 4.8 0.08 0.00 0.00 83 1012.5
20260905064351 20 266 0.0 0.0 0.08 0.00 0.00 84 1012.4
20260905064048 20 266 0.0 3.2 0.08 0.00 0.00 85 1012.3
20260905063744 19 266 1.6 8.0 0.08 0.00 0.00 86 1012.4
20260905063441 18 266 3.2 8.0 0.08 0.00 0.00 87 1012.2
20260905063138 18 266 0.0 4.8 0.08 0.00 0.00 87 1012.5
20260905062834 18 266 0.0 0.0 0.08 0.00 0.00 88 1012.0
20260905062531 18 266 0.0 0.0 0.08 0.00 0.00 88 1012.0
20260905062228 18 266 0.0 0.0 0.08 0.00 0.00 89 1011.9
20260905061924 18 266 0.0 0.0 0.08 0.00 0.00 89 1011.7
20260905061621 18 266 0.0 0.0 0.08 0.00 0.00 88 1011.6
20260905061317 18 266 0.0 0.0 0.08 0.00 0.00 87 1011.5
20260905061014 18 266 0.0 0.0 0.08 0.00 0.00 87 1011.6
20260905060711 18 266 0.0 0.0 0.08 0.00 0.00 88 1011.4
20260905060407 18 266 0.0 0.0 0.08 0.00 0.00 89 1011.5
20260905060104 17 266 0.0 0.0 0.08 0.00 0.00 89 1011.4
20260905055801 17 266 0.0 0.0 0.08 0.00 0.00 90 1011.4
20260905055457 17 266 0.0 0.0 0.08 0.00 0.00 91 1011.5
20260905055154 17 266 0.0 0.0 0.08 0.00 0.00 92 1011.5
20260905054851 17 266 0.0 0.0 0.08 0.00 0.00 92 1011.3
20260905054547 17 266 0.0 0.0 0.08 0.00 0.00 92 1011.5
20260905054244 16 266 0.0 0.0 0.08 0.00 0.00 92 1011.4
20260905053940 16 266 0.0 0.0 0.08 0.00 0.00 93 1011.4
20260905053637 16 266 0.0 0.0 0.08 0.00 0.00 93 1011.0
20260905053334 16 266 0.0 0.0 0.08 0.00 0.00 94 1011.3
20260905053030 16 266 0.0 0.0 0.08 0.00 0.00 94 1011.1
20260905052727 16 266 0.0 0.0 0.08 0.00 0.00 94 1011.1
20260905052424 16 266 0.0 0.0 0.08 0.00 0.00 94 1010.8
20260905052120 16 266 0.0 0.0 0.08 0.00 0.00 94 1011.1
20260905051817 16 266 0.0 0.0 0.08 0.00 0.00 94 1010.8
20260905051514 16 266 0.0 0.0 0.08 0.00 0.00 94 1010.7
20260905051210 16 266 0.0 0.0 0.08 0.00 0.00 94 1010.7
20260905050907 16 266 0.0 0.0 0.08 0.00 0.00 94 1010.6
20260905050604 15 266 0.0 0.0 0.08 0.00 0.00 94 1010.8
20260905050300 15 266 0.0 0.0 0.08 0.00 0.00 94 1010.6
20260905045957 15 266 0.0 0.0 0.08 0.00 0.00 93 1010.4
20260905045654 16 266 0.0 0.0 0.08 0.00 0.00 93 1010.5
20260905045350 16 266 0.0 0.0 0.08 0.00 0.00 93 1010.5
20260905045047 16 266 0.0 0.0 0.08 0.00 0.00 93 1010.4
20260905044743 16 266 0.0 0.0 0.08 0.00 0.00 93 1010.5
20260905044440 16 266 0.0 0.0 0.08 0.00 0.00 93 1010.7
20260905044137 16 266 0.0 0.0 0.08 0.00 0.00 94 1010.5
20260905043833 16 266 0.0 0.0 0.08 0.00 0.00 94 1010.4
20260905043530 16 266 0.0 0.0 0.08 0.00 0.00 94 1010.6
20260905043227 16 266 0.0 0.0 0.08 0.00 0.00 94 1010.6
20260905042923 15 266 0.0 0.0 0.08 0.00 0.00 94 1010.4
20260905042620 15 266 0.0 0.0 0.08 0.00 0.00 94 1010.5
20260905042317 15 266 0.0 0.0 0.08 0.00 0.00 94 1010.3
20260905042013 16 266 0.0 0.0 0.08 0.00 0.00 93 1010.5
20260905041710 16 266 0.0 0.0 0.08 0.00 0.00 93 1010.2
20260905041407 16 266 0.0 0.0 0.08 0.00 0.00 93 1010.4
20260905041103 16 266 0.0 0.0 0.08 0.00 0.00 94 1010.3
20260905040758 16 266 0.0 0.0 0.08 0.00 0.00 94 1010.2
20260905040455 15 266 0.0 0.0 0.08 0.00 0.00 94 1010.1
20260905040152 15 266 0.0 0.0 0.08 0.00 0.00 94 1010.0
20260905035848 15 266 0.0 0.0 0.08 0.00 0.00 94 1009.9
20260905035545 15 266 0.0 0.0 0.08 0.00 0.00 94 1010.2
20260905035242 15 266 0.0 0.0 0.08 0.00 0.00 94 1010.0
20260905034938 15 266 0.0 0.0 0.08 0.00 0.00 94 1010.0
20260905034635 15 266 0.0 0.0 0.08 0.00 0.00 94 1009.9
20260905034332 15 266 0.0 0.0 0.08 0.00 0.00 94 1009.9
20260905034028 15 266 0.0 0.0 0.08 0.00 0.00 95 1010.0
20260905033725 15 266 0.0 0.0 0.08 0.00 0.00 95 1009.8
20260905033422 15 266 0.0 0.0 0.08 0.00 0.00 95 1010.1
20260905033118 15 266 0.0 0.0 0.08 0.00 0.00 95 1009.9
20260905032815 15 266 0.0 0.0 0.08 0.00 0.00 95 1009.8
20260905032512 15 266 0.0 0.0 0.08 0.00 0.00 95 1009.8
20260905032208 15 266 0.0 0.0 0.08 0.00 0.00 95 1009.9
20260905031905 15 266 0.0 0.0 0.08 0.00 0.00 95 1009.7
20260905031602 15 266 0.0 0.0 0.08 0.00 0.00 95 1009.6
20260905031258 15 266 0.0 0.0 0.08 0.00 0.00 95 1009.5
20260905030955 15 266 0.0 0.0 0.08 0.00 0.00 95 1009.6
20260905030652 15 266 0.0 0.0 0.08 0.00 0.00 96 1009.5
20260905030348 15 266 0.0 0.0 0.08 0.00 0.00 96 1009.5
20260905030045 15 266 0.0 0.0 0.08 0.00 0.00 95 1009.7
20260905025742 15 266 0.0 0.0 0.08 0.00 0.00 95 1009.3
20260905025438 15 266 0.0 0.0 0.08 0.00 0.00 95 1009.6
20260905025135 15 266 0.0 0.0 0.08 0.00 0.00 95 1009.3
20260905024832 15 266 0.0 0.0 0.08 0.00 0.00 95 1009.4
20260905024529 15 266 0.0 0.0 0.08 0.00 0.00 95 1009.4
20260905024225 15 266 0.0 0.0 0.08 0.00 0.00 95 1009.4
20260905023922 15 266 0.0 0.0 0.08 0.00 0.00 95 1009.4
20260905023619 15 266 0.0 0.0 0.08 0.00 0.00 95 1009.3
20260905023315 15 266 0.0 0.0 0.08 0.00 0.00 95 1009.3
20260905023012 15 266 0.0 0.0 0.08 0.00 0.00 95 1009.2
20260905022708 15 266 0.0 0.0 0.08 0.00 0.00 95 1009.4
20260905022405 15 266 0.0 0.0 0.08 0.00 0.00 96 1009.5
20260905022101 15 266 0.0 0.0 0.08 0.00 0.00 96 1009.3
20260905021758 15 266 0.0 0.0 0.08 0.00 0.00 96 1009.2
20260905021455 15 266 0.0 0.0 0.08 0.00 0.00 96 1009.3
20260905021151 15 266 0.0 0.0 0.08 0.00 0.00 95 1009.5
20260905020848 15 266 0.0 0.0 0.08 0.00 0.00 95 1009.5
20260905020545 15 266 0.0 0.0 0.08 0.00 0.00 95 1009.4
20260905020222 15 266 0.0 0.0 0.08 0.00 0.00 95 1009.3
20260905015918 15 266 0.0 0.0 0.08 0.00 0.00 95 1009.6
20260905015615 15 266 0.0 0.0 0.08 0.00 0.00 95 1009.4
20260905015312 15 266 0.0 0.0 0.08 0.00 0.00 95 1009.3
20260905015008 15 266 0.0 0.0 0.08 0.00 0.00 95 1009.5
20260905014705 15 266 0.0 0.0 0.08 0.00 0.00 95 1009.6
20260905014402 15 266 0.0 0.0 0.08 0.00 0.00 95 1009.6
20260905014058 15 266 0.0 0.0 0.08 0.00 0.00 95 1009.6
20260905013755 15 266 0.0 0.0 0.08 0.00 0.00 95 1009.7
20260905013452 15 266 0.0 0.0 0.08 0.00 0.00 95 1009.4
20260905013148 15 266 0.0 0.0 0.08 0.00 0.00 94 1009.6
20260905012845 15 266 0.0 0.0 0.08 0.00 0.00 94 1009.6
20260905012542 15 266 0.0 0.0 0.08 0.00 0.00 95 1009.5
20260905012238 15 266 0.0 0.0 0.08 0.00 0.00 95 1009.6
20260905011935 15 266 0.0 0.0 0.08 0.00 0.00 95 1009.7
20260905011631 15 266 0.0 0.0 0.08 0.00 0.00 95 1009.6
20260905011328 15 266 0.0 0.0 0.08 0.00 0.00 94 1009.6
20260905011025 15 266 0.0 0.0 0.08 0.00 0.00 94 1009.6
20260905010721 16 266 0.0 0.0 0.08 0.00 0.00 94 1009.5